Tracking 18980 objects as of 23-Feb-2018
HD Live streaming from Space Station
objects crossing your sky now

SL-14 R/B

Track SL-14 R/B now!
10-day predictions


NORAD ID: 16720
Int'l Code: 1986-034B
Perigee: 611.9 km
Apogee: 640.1 km
Inclination: 82.6 °
Period: 97.1 minutes
Semi major axis: 6996 km
RCS: 3.5564 m2 (large)
Launch date: May 15, 1986
Source: Commonwealth of Independent States (former USSR) (CIS)
Launch site: PLESETSK MISSILE AND SPACE COMPLEX (PKMTR)

Note: This is a ROCKET BODY
aabbcc
Your satellite tracking list
Your tracking list is empty




NASA's NSSDC Master Catalog

Two Line Element Set (TLE):
1 16720U 86034B   18053.39625227 +.00000083 +00000-0 +71215-5 0  9992
2 16720 082.5559 008.2194 0020208 000.6855 118.3600 14.83323990695261
Source of the keplerian elements: AFSPC